Temp
48 42 38 44 44 44 44 40 39 45 50 46 45 46 50 55 53 54 52 54 56 59 63 64 66 69 68 68 68 68 69 70 68 66 67 66 68 67 68 69 71 71 72 72
44 39 50 50 49 45 43 39 39 46 51 45 44 43 50 53 54 55 55 54 55 58 60 64 64 66 68 67 67 68 68 68 68 69 70 68 68 68 68 69 70 71 72 71
40 47 53 49 45 42 42 39 41 41 47 49 46 41 46 51 54 56 58 58 58 58 58 61 64 64 67 67 68 68 67 68 67 68 69 68 67 67 66 67 68 70 71 70
42 48 48 45 43 44 35 46 45 44 41 36 47 30 41 49 50 52 54 55 57 58 61 62 62 63 66 67 68 69 68 68 69 70 69 68 69 66 66 67 68 68 68 67
42 44 43 41 43 46 42 50 45 44 40 38 39 33 37 45 44 49 53 53 54 59 61 61 62 65 66 66 67 66 66 66 66 66 65 66 67 68 68 68 66 65 64 65
45 50 46 45 50 50 50 44 44 42 38 30 35 33 34 39 43 48 51 53 56 58 60 62 65 66 66 67 66 65 65 65 65 65 66 66 68 68 67 66 65 64 63 63
40 42 48 51 44 47 43 39 32 25 28 29 39 34 35 45 46 48 50 51 55 59 60 61 62 66 66 66 65 67 66 64 65 65 66 66 69 68 67 66 64 62 62 62
30 31 44 50 44 41 40 40 32 25 28 32 40 32 38 51 53 51 52 52 55 55 58 61 63 66 67 66 66 67 66 65 66 65 66 66 69 68 67 66 64 62 61 61
31 35 49 51 51 47 42 38 44 32 35 31 35 39 46 52 51 52 52 51 50 53 56 59 63 66 68 68 67 69 67 64 65 66 64 65 68 68 66 64 62 61 61 61
39 32 45 49 49 48 47 50 36 35 26 26 36 35 37 44 47 51 51 50 49 52 55 58 64 66 67 68 69 68 65 63 64 65 65 64 65 68 64 63 61 59 59 60
40 39 39 45 42 40 43 40 42 39 35 29 28 34 46 45 47 48 52 53 50 50 52 58 63 65 66 67 66 62 63 63 63 66 67 67 66 64 63 61 59 58 58 57
42 40 35 39 49 50 49 44 42 35 34 33 33 34 49 48 51 51 51 55 54 52 53 57 61 62 62 62 61 61 62 64 66 67 67 65 65 64 60 59 58 58 55 55
43 34 32 35 41 46 40 45 46 44 42 33 30 33 51 51 50 50 51 58 54 55 55 56 59 61 62 62 63 65 64 64 66 65 64 63 62 61 58 57 55 53 52 52
50 39 38 31 37 45 39 44 47 44 37 36 33 38 46 47 46 48 48 56 56 55 59 58 59 62 64 65 67 64 64 64 64 63 61 60 59 58 55 53 52 50 50 50
46 37 41 40 43 45 45 46 44 43 42 35 40 41 44 47 48 47 48 53 58 59 61 61 62 63 64 61 61 60 60 60 59 58 57 56 56 54 52 51 49 48 47 47
46 37 42 39 45 48 43 46 45 45 43 43 44 42 50 50 51 48 47 48 52 55 56 58 58 59 58 58 58 57 57 56 57 55 52 51 50 50 48 48 45 45 45 45
43 40 39 32 41 43 38 43 43 46 45 43 39 43 49 47 48 45 45 47 50 52 53 54 55 55 56 56 56 55 55 56 54 52 51 49 48 45 44 44 43 43 43 44
39 37 39 32 36 32 43 50 48 46 46 45 46 47 49 48 48 47 46 46 49 50 52 53 54 54 55 56 56 56 56 55 54 52 51 50 48 44 43 42 42 41 41 43
42 38 37 29 33 37 44 46 43 43 44 47 45 48 49 49 50 47 47 47 49 50 51 51 53 54 55 56 57 57 55 55 53 52 50 48 46 44 43 41 40 40 43 43
43 40 38 37 31 23 40 47 51 49 39 48 48 47 47 47 43 43 45 47 50 51 51 51 52 53 53 53 55 54 54 54 51 51 49 47 46 43 41 41 41 42 44 43
34 35 31 35 33 35 44 48 51 36 37 46 48 48 47 43 43 45 46 46 48 49 51 51 51 51 51 54 54 50 51 50 50 50 48 46 44 43 45 44 44 43 42 42
33 33 33 31 28 26 47 48 41 44 46 46 47 50 47 47 46 45 45 45 46 47 48 50 49 49 51 52 52 48 48 49 50 49 47 45 45 47 46 44 43 42 41 40
33 37 34 36 34 42 46 46 47 46 45 46 45 49 49 48 46 45 44 45 46 46 47 48 47 47 48 50 50 48 48 49 48 48 46 46 47 47 46 43 41 40 41 40
40 42 37 39 41 44 46 48 48 47 47 48 47 48 50 47 46 44 44 44 45 46 46 47 46 45 45 47 48 48 48 48 47 45 46 46 45 45 45 45 43 41 40 40
39 40 37 37 41 44 46 48 49 47 48 48 48 47 48 48 46 45 44 44 45 45 46 46 45 44 44 45 45 46 47 47 44 45 45 44 44 44 41 41 41 40 39 41
40 38 34 34 42 44 45 48 50 47 46 48 46 46 47 49 47 46 44 44 45 44 45 45 45 44 44 45 45 45 46 47 46 44 44 44 43 42 42 40 38 39 39 39
MSLP
1011.75 1012.35 1012.50 1012.37 1012.53 1012.44 1012.45 1011.96 1010.77 1008.98 1008.83 1008.54 1007.50 1006.11 1004.84 1004.05 1004.29 1003.84 1003.52 1003.50 1003.35 1002.81 1001.67 1001.07 1000.67 1001.20 1001.65 1002.34 1002.27 1002.69 1002.91 1004.61 1005.92 1007.50 1008.33 1008.98 1009.26 1009.85 1010.36 1010.32 1010.28 1010.67 1011.19 1011.48
1012.44 1012.09 1011.66 1011.86 1011.81 1011.91 1011.82 1011.41 1009.79 1008.59 1008.17 1008.27 1007.02 1004.67 1004.35 1003.03 1002.90 1002.88 1002.72 1002.73 1002.61 1002.47 1001.63 1000.91 1000.11 1000.22 1000.82 1001.30 1002.07 1001.97 1002.58 1003.12 1005.30 1006.64 1007.30 1008.05 1008.71 1009.32 1009.72 1010.19 1010.35 1010.56 1010.91 1011.37
1012.58 1011.27 1011.39 1011.67 1011.45 1011.43 1011.09 1010.76 1009.60 1008.82 1007.67 1007.44 1006.40 1002.73 1003.12 1001.58 1001.47 1001.43 1001.25 1001.02 1001.36 1001.49 1001.25 1000.62 1000.04 999.97 1000.23 1000.26 999.92 1000.16 1001.13 1003.16 1004.82 1005.84 1006.73 1007.77 1008.24 1009.08 1009.94 1010.48 1010.64 1010.54 1010.81 1011.50
1012.03 1011.23 1011.34 1011.29 1011.16 1010.87 1010.39 1009.40 1009.12 1008.33 1007.97 1006.84 1006.50 1003.14 1002.73 1001.42 1000.34 1000.41 1000.01 1000.02 1000.05 1000.26 1000.16 999.89 999.76 999.82 999.80 1000.01 1000.26 1000.21 1002.17 1003.88 1004.49 1005.07 1006.05 1006.86 1007.67 1008.06 1008.78 1009.62 1010.24 1010.66 1011.05 1011.72
1012.11 1011.41 1011.35 1011.13 1010.46 1010.37 1009.65 1008.78 1008.45 1007.66 1007.50 1007.38 1005.87 1005.82 1001.89 1000.69 999.86 998.92 998.94 999.05 999.13 999.31 999.22 998.99 999.09 999.10 999.31 999.68 1000.39 1001.50 1002.47 1003.66 1004.11 1004.71 1005.51 1006.39 1007.23 1007.49 1008.37 1009.32 1010.04 1010.83 1011.47 1011.79
1012.05 1011.39 1011.23 1010.49 1009.87 1009.58 1008.88 1008.51 1007.31 1007.15 1007.31 1006.95 1005.81 1005.47 1002.32 1001.82 1000.27 999.03 998.03 998.15 998.03 998.46 998.47 998.29 998.17 998.68 999.08 999.65 1000.43 1001.46 1002.20 1003.12 1003.88 1004.22 1005.41 1005.88 1006.52 1007.41 1008.43 1009.44 1010.15 1011.09 1011.73 1012.49
1012.54 1011.37 1010.48 1010.03 1009.64 1008.91 1008.98 1008.97 1007.99 1007.74 1007.38 1006.49 1005.53 1005.04 1002.33 1001.26 999.72 998.69 997.81 997.62 997.23 997.19 997.69 997.59 997.94 998.50 999.17 999.63 1000.43 1000.65 1002.05 1003.07 1003.44 1003.47 1004.73 1005.29 1005.74 1007.30 1008.33 1008.99 1009.67 1010.71 1011.47 1012.57
1013.97 1011.96 1010.52 1009.89 1010.16 1009.82 1009.36 1009.72 1009.76 1008.97 1007.42 1005.69 1004.68 1003.90 1001.56 1000.48 999.57 998.59 997.92 997.07 996.72 996.78 996.67 996.75 996.92 997.81 998.36 998.95 999.87 1000.79 1001.32 1002.29 1002.10 1002.80 1004.43 1005.39 1005.34 1006.44 1008.05 1009.39 1009.94 1010.55 1010.95 1011.98
1014.56 1012.58 1010.37 1009.86 1009.30 1009.46 1009.12 1009.38 1009.20 1008.57 1007.18 1006.22 1004.32 1003.09 1001.69 1000.20 999.29 998.52 998.11 998.31 997.14 996.38 996.33 996.22 996.25 996.94 997.71 998.40 999.01 999.76 1000.88 1001.35 1002.18 1003.52 1004.67 1005.76 1006.15 1006.34 1005.56 1009.43 1010.04 1010.46 1010.46 1012.41
1014.70 1013.40 1010.70 1009.51 1008.83 1008.95 1009.08 1008.87 1008.84 1008.66 1007.44 1005.55 1003.73 1002.74 1002.10 1000.53 999.09 998.69 997.94 997.82 997.40 996.72 996.50 996.26 996.30 996.47 997.12 997.55 998.88 999.67 1000.55 1001.73 1002.87 1003.96 1004.52 1005.32 1006.13 1006.51 1005.96 1008.54 1009.76 1009.75 1011.49 1012.60
1014.70 1014.39 1011.40 1010.45 1009.38 1009.26 1009.12 1008.78 1008.52 1008.12 1007.44 1006.16 1004.58 1002.81 1002.26 1001.47 1000.22 999.20 998.34 997.72 997.65 996.66 996.58 996.11 996.24 996.41 996.62 997.72 998.78 1000.04 1000.82 1001.87 1003.03 1003.92 1004.32 1004.77 1005.27 1006.17 1007.19 1008.52 1009.09 1010.43 1012.05 1012.96
1014.28 1013.97 1012.64 1010.76 1009.18 1009.02 1009.31 1008.73 1008.21 1007.45 1006.87 1006.29 1005.36 1003.63 1002.35 1001.74 1000.59 999.70 998.54 997.78 996.88 996.11 996.53 996.11 996.25 996.59 996.91 998.31 999.13 1000.27 1001.11 1001.87 1002.96 1003.64 1003.80 1004.29 1004.98 1006.36 1007.64 1008.71 1010.02 1011.00 1012.51 1013.61
1013.93 1013.90 1012.85 1010.71 1009.80 1009.34 1009.39 1008.82 1008.33 1007.54 1006.48 1006.33 1005.82 1004.41 1002.47 1001.72 1001.00 1000.06 998.82 997.24 996.20 995.80 996.22 996.34 996.71 997.14 997.62 998.64 999.27 1000.44 1000.85 1001.83 1002.75 1003.54 1004.05 1005.22 1005.03 1006.02 1008.22 1009.30 1010.45 1011.84 1013.00 1014.23
1013.70 1013.68 1013.34 1012.70 1011.38 1010.36 1009.73 1008.90 1008.12 1007.45 1007.09 1006.09 1005.72 1004.44 1002.94 1002.24 1001.59 1000.72 999.76 997.99 996.73 996.18 995.94 996.52 997.19 997.54 998.25 999.16 999.67 1000.17 1000.86 1001.65 1002.78 1003.78 1005.43 1006.54 1006.90 1006.54 1007.81 1010.14 1011.44 1012.38 1013.24 1014.93
1013.60 1013.35 1012.72 1011.73 1010.78 1009.78 1009.10 1008.53 1008.47 1007.73 1007.91 1006.88 1005.90 1004.96 1004.23 1003.49 1002.93 1002.20 1001.21 999.70 998.46 997.94 997.22 996.90 996.93 997.60 998.25 999.17 999.65 1000.52 1001.49 1002.36 1003.20 1004.78 1006.38 1007.36 1008.39 1009.00 1007.97 1010.46 1012.12 1012.96 1014.14 1015.66
1013.47 1013.09 1012.25 1011.26 1010.03 1009.35 1008.83 1009.01 1008.51 1007.91 1007.91 1007.32 1006.43 1005.52 1005.08 1004.14 1003.49 1002.90 1002.50 1001.49 1000.49 999.58 998.81 998.59 997.90 998.31 999.30 999.74 1000.47 1001.37 1002.29 1003.39 1004.21 1005.69 1007.14 1008.48 1009.26 1011.02 1009.89 1010.90 1012.89 1013.93 1015.58 1015.60
1013.66 1013.18 1012.61 1011.52 1010.20 1009.32 1009.17 1009.10 1008.63 1008.13 1008.18 1007.96 1007.07 1006.41 1005.39 1004.62 1003.76 1004.47 1003.74 1002.97 1002.14 1001.37 1000.54 1000.15 1000.09 999.81 1000.22 1000.96 1001.52 1002.10 1003.22 1004.26 1005.48 1006.58 1007.99 1008.84 1010.34 1012.17 1011.50 1012.42 1014.54 1016.54 1015.95 1016.76
1013.62 1013.53 1013.03 1012.09 1010.74 1009.72 1009.50 1008.91 1008.64 1008.28 1008.20 1008.15 1007.49 1006.64 1005.87 1005.28 1004.65 1004.87 1004.82 1004.29 1003.37 1002.72 1002.14 1001.96 1001.85 1001.61 1001.58 1001.83 1002.42 1003.32 1004.38 1005.17 1006.67 1007.58 1008.89 1010.14 1010.96 1011.68 1012.56 1014.64 1016.20 1016.48 1016.41 1017.46
1013.75 1013.91 1013.37 1012.88 1012.01 1010.51 1009.74 1008.99 1008.88 1008.51 1008.26 1008.04 1007.77 1007.05 1006.40 1005.57 1005.03 1005.53 1005.61 1005.34 1004.66 1003.98 1003.51 1003.28 1003.36 1003.23 1003.22 1003.44 1003.53 1003.86 1004.64 1005.58 1006.87 1008.41 1009.98 1010.19 1011.90 1012.91 1013.73 1015.23 1017.46 1017.58 1017.66 1018.10
1013.70 1013.82 1013.78 1013.14 1012.39 1011.21 1010.53 1009.13 1008.69 1008.66 1008.47 1008.01 1008.11 1007.58 1007.16 1006.71 1006.55 1007.38 1006.84 1006.17 1005.47 1004.91 1004.49 1003.91 1003.94 1004.10 1004.04 1004.25 1004.38 1004.76 1005.89 1006.39 1007.53 1008.39 1009.99 1011.48 1012.21 1013.51 1014.69 1015.91 1017.46 1017.59 1018.07 1019.24
1014.09 1013.74 1013.71 1013.30 1012.65 1011.20 1010.46 1009.53 1008.83 1009.37 1009.94 1008.69 1008.49 1008.29 1008.05 1008.24 1008.73 1008.69 1007.96 1007.24 1006.83 1006.23 1005.65 1005.28 1005.22 1005.25 1005.24 1005.44 1005.48 1006.29 1007.17 1007.93 1008.74 1009.51 1010.54 1011.94 1013.30 1014.21 1015.84 1016.82 1018.08 1018.85 1019.93 1020.73
1014.44 1014.04 1013.47 1013.19 1012.75 1011.55 1010.41 1009.92 1009.91 1010.04 1009.59 1009.48 1008.94 1008.69 1008.61 1008.87 1008.95 1009.00 1008.73 1008.23 1007.69 1007.49 1007.08 1006.70 1006.46 1006.44 1006.51 1006.41 1006.46 1005.53 1008.67 1009.26 1010.38 1010.40 1011.53 1013.16 1014.40 1015.76 1016.80 1018.03 1019.07 1019.93 1020.51 1021.41
1014.34 1013.67 1013.42 1012.85 1011.71 1010.76 1010.25 1010.08 1009.96 1009.97 1009.97 1009.59 1009.46 1009.04 1008.97 1009.03 1009.34 1009.55 1009.42 1009.09 1008.87 1008.36 1008.30 1008.14 1007.91 1007.92 1007.85 1007.51 1007.12 1007.48 1009.46 1010.30 1011.25 1011.41 1012.70 1014.33 1015.62 1016.89 1017.83 1018.75 1019.44 1020.05 1020.76 1021.32
1013.76 1013.21 1013.14 1012.70 1010.93 1010.44 1010.08 1009.82 1009.76 1009.87 1009.79 1009.49 1009.41 1009.48 1009.34 1009.39 1009.59 1009.82 1009.84 1009.58 1009.63 1009.41 1008.94 1008.47 1008.60 1008.69 1008.67 1008.46 1008.65 1008.89 1010.39 1011.31 1011.78 1012.78 1014.38 1015.49 1016.03 1017.38 1018.50 1019.17 1019.77 1020.59 1021.28 1021.73
1013.85 1013.20 1012.58 1012.02 1010.91 1010.28 1009.51 1009.20 1009.38 1009.70 1009.57 1009.45 1009.24 1009.61 1009.87 1009.75 1009.70 1010.01 1010.33 1010.15 1009.98 1010.11 1009.90 1009.59 1009.80 1010.01 1010.11 1010.09 1010.26 1010.76 1011.56 1011.76 1013.15 1014.13 1015.24 1016.09 1017.06 1018.26 1019.24 1020.09 1020.67 1021.14 1021.41 1021.69
1012.48 1011.78 1011.92 1011.17 1010.25 1009.97 1009.41 1008.82 1008.83 1009.55 1009.59 1009.19 1009.38 1009.62 1009.99 1010.13 1010.16 1010.26 1010.66 1010.71 1010.46 1010.62 1010.69 1010.60 1010.88 1010.86 1011.33 1011.54 1011.53 1011.73 1012.64 1012.96 1013.75 1014.95 1015.92 1016.98 1017.82 1018.70 1019.44 1020.42 1021.38 1022.00 1022.11 1022.92
Wind_Speed
2 1 9 15 9 13 14 14 18 23 15 13 19 25 25 21 10 14 9 8 8 10 11 10 10 10 13 12 13 14 17 14 11 6 5 3 4 3 2 3 6 6 5 5
4 10 13 7 7 9 11 15 23 18 13 9 17 25 22 23 19 15 15 11 10 9 8 10 11 6 13 17 18 15 15 16 11 9 7 4 4 2 3 3 4 6 6 7
5 13 14 5 8 12 12 11 18 22 20 15 22 29 18 16 20 18 17 17 12 13 13 10 9 7 11 14 10 12 12 14 12 11 6 3 5 4 3 2 2 3 6 5
8 4 2 10 6 5 7 5 11 15 12 10 4 17 18 15 17 14 14 13 15 15 14 12 8 7 12 14 12 9 12 14 12 12 10 8 8 7 4 4 4 5 7 8
10 6 5 6 5 2 12 15 14 18 15 13 15 8 10 8 13 19 17 12 10 14 16 14 11 15 14 16 17 16 15 13 13 12 11 7 4 4 5 7 11 9 7 8
14 5 4 5 5 8 12 7 19 9 2 4 7 6 8 7 8 13 6 11 13 14 15 13 12 15 16 16 17 17 19 16 15 14 11 10 11 10 10 10 9 7 7 6
10 4 4 2 8 5 5 11 6 6 1 5 7 4 10 11 13 9 10 11 11 14 13 13 11 16 16 17 17 18 19 19 18 19 13 11 13 11 10 13 11 13 9 6
5 11 4 1 2 8 8 2 3 8 6 12 4 7 7 10 13 12 9 7 8 9 13 13 14 18 19 20 21 20 20 19 17 17 16 10 15 10 7 5 9 7 8 9
5 8 6 11 9 3 3 5 4 6 5 4 3 6 6 16 16 17 12 6 4 2 9 12 13 16 17 20 21 22 17 10 11 11 10 8 8 14 19 12 8 8 12 9
4 10 5 8 4 1 2 8 3 3 6 4 5 2 4 21 26 21 18 12 8 8 6 8 12 15 15 13 11 12 9 9 11 10 11 12 10 12 16 13 13 13 12 12
1 5 10 9 3 5 4 7 4 4 4 4 6 1 4 15 19 18 18 14 7 11 6 7 13 13 11 12 11 10 14 14 12 11 10 14 14 13 13 12 16 14 13 13
4 3 7 15 15 6 6 7 6 4 7 2 4 4 6 17 16 14 15 14 10 11 4 8 10 11 11 11 10 10 10 13 13 11 11 12 17 17 14 15 15 15 14 14
2 2 8 9 6 6 4 14 16 13 6 4 3 7 14 14 15 18 18 16 8 4 6 7 9 8 9 10 10 10 11 10 11 12 13 9 13 17 15 17 16 15 16 14
2 2 6 5 14 15 13 14 19 8 6 10 2 14 17 21 21 22 22 18 11 2 12 11 10 11 13 13 13 11 12 12 12 13 12 9 11 13 18 17 17 17 15 14
3 5 4 9 14 14 15 12 17 13 16 7 19 15 20 19 16 18 17 19 14 9 9 12 15 15 13 12 13 13 13 15 16 17 14 12 12 10 20 19 16 17 15 11
3 5 4 11 8 11 14 10 12 7 14 13 17 11 18 18 15 20 18 18 14 11 11 6 10 13 12 14 15 15 15 15 18 18 18 17 17 12 15 19 17 15 12 13
3 3 5 6 7 11 1 10 9 10 10 11 12 14 18 18 14 13 15 17 14 10 11 10 9 10 11 13 15 17 17 16 17 18 18 19 19 15 17 18 14 10 13 10
3 3 2 5 8 2 2 3 8 10 6 10 13 17 17 15 10 11 15 15 15 12 10 9 8 9 11 14 16 18 16 18 17 18 20 17 19 18 21 17 12 10 12 12
6 1 4 2 4 6 3 10 7 7 4 10 15 17 15 19 4 8 18 15 10 12 9 9 7 8 10 11 14 16 16 18 19 16 13 21 16 19 17 19 11 11 12 11
0 5 2 2 3 3 4 10 8 1 4 14 15 17 13 14 8 5 17 15 12 10 10 10 10 10 11 11 13 14 12 14 14 15 18 15 18 18 19 16 12 12 12 12
5 3 2 2 4 4 2 9 6 6 7 14 12 13 8 5 2 6 10 11 10 9 9 9 10 7 8 7 14 16 12 14 15 18 20 18 17 19 16 16 12 12 11 11
3 2 2 0 2 3 1 4 3 6 6 6 11 10 5 4 5 5 7 9 10 10 9 8 7 8 6 8 12 23 14 13 14 19 22 19 18 13 13 15 12 11 11 10
4 6 3 6 7 5 5 4 4 3 5 6 5 10 5 5 5 5 5 7 7 8 7 7 8 8 7 7 14 19 16 16 17 20 19 18 17 14 13 13 12 10 9 8
4 3 4 3 4 3 4 4 4 6 5 6 3 4 4 5 5 4 4 5 5 7 7 6 9 10 10 9 12 18 17 16 17 19 17 16 16 15 11 8 8 8 8 8
6 3 4 6 9 8 8 5 4 5 6 7 6 2 4 2 4 4 3 4 5 6 6 6 7 9 8 9 11 13 14 17 16 16 15 15 13 12 10 8 7 7 5 7
7 8 6 7 9 4 7 4 3 8 7 8 5 4 2 2 1 2 3 3 4 5 6 7 8 10 8 8 11 12 11 13 17 15 12 11 10 10 10 10 10 18 14 13
Wind_Direction
337 310 261 270 244 260 282 276 264 275 279 281 271 272 279 287 236 250 246 236 232 253 260 268 260 192 179 178 164 162 148 154 145 153 166 135 173 149 164 175 173 169 177 153
341 258 282 286 277 270 265 273 280 282 280 258 271 265 270 268 261 244 246 238 216 241 260 263 257 218 180 186 176 160 150 144 152 164 169 152 147 157 146 170 167 166 158 155
227 263 316 308 301 290 269 259 275 279 296 274 280 279 259 257 254 256 247 236 214 215 240 242 251 193 169 183 209 147 136 149 156 153 145 110 111 94 99 104 117 156 141 123
268 278 313 312 276 267 288 249 271 281 296 299 188 294 284 275 265 242 226 214 216 211 225 225 220 183 174 175 181 158 146 147 155 156 159 157 181 160 158 152 128 100 101 108
265 299 320 297 238 285 260 292 279 275 273 295 279 264 269 297 272 268 247 218 204 209 221 215 191 188 176 159 160 156 144 148 139 136 129 122 134 122 119 120 117 110 97 105
261 300 236 232 265 262 279 304 293 278 276 227 272 188 283 342 275 291 244 216 205 209 226 219 192 180 175 164 157 157 148 151 146 132 137 129 126 133 136 137 128 120 113 104
319 278 260 209 305 291 25 332 308 344 322 252 229 230 253 287 322 298 274 223 215 207 211 208 171 176 169 167 167 153 161 166 158 144 148 147 137 138 151 149 146 142 135 132
2 325 12 359 217 274 307 321 308 303 300 296 293 238 271 322 332 323 329 296 206 196 194 187 184 175 179 172 170 177 172 173 163 149 147 154 143 145 117 155 147 142 131 118
339 271 297 291 283 191 354 312 254 267 239 266 215 274 291 330 334 342 348 15 359 318 191 181 179 183 189 176 180 180 173 158 152 144 134 147 157 166 136 153 143 133 109 122
267 292 262 311 319 180 218 311 290 226 303 292 285 285 322 338 335 337 339 350 339 303 259 164 180 187 185 195 178 171 148 145 146 146 149 150 165 144 125 144 136 113 114 118
227 211 295 325 323 334 342 315 281 269 250 286 301 335 334 331 325 324 325 321 298 281 239 178 174 189 188 173 169 155 147 133 136 156 158 154 154 128 133 140 118 118 116 109
225 274 288 283 289 248 309 304 303 285 314 285 269 308 300 326 332 333 313 304 275 257 216 186 160 162 167 155 141 145 141 136 148 152 136 144 153 142 130 125 121 114 109 103
202 282 304 331 12 10 355 324 344 314 274 285 326 307 318 335 0 346 347 349 307 252 145 129 135 143 138 141 138 158 151 138 129 118 115 137 127 132 130 121 115 110 108 98
148 266 214 261 287 294 298 330 348 353 339 317 332 320 360 2 0 353 350 354 18 42 134 133 136 135 144 150 153 120 110 110 115 110 116 126 126 132 114 116 113 103 100 105
183 257 232 249 270 285 270 355 345 2 356 356 335 356 357 351 353 353 354 1 24 30 113 141 138 137 129 116 108 107 104 107 105 102 100 97 99 85 116 110 108 106 103 112
208 272 284 303 297 309 310 4 340 12 5 353 342 342 351 339 344 5 1 3 12 26 32 67 101 115 118 122 117 112 108 109 108 107 101 99 90 81 94 114 101 89 113 110
255 265 313 274 300 315 84 6 334 326 27 356 347 328 336 342 339 15 356 5 5 14 32 37 59 81 103 110 119 113 113 114 110 108 108 104 100 104 94 82 83 111 103 94
287 317 261 281 331 9 91 310 316 317 347 2 341 339 341 345 325 27 9 358 4 10 25 46 64 85 92 106 114 120 123 121 123 119 119 117 119 119 103 96 100 92 81 93
195 296 285 333 312 294 357 334 332 327 338 349 342 339 347 341 315 8 357 357 5 17 16 52 68 80 95 105 118 119 121 122 121 115 112 116 121 111 111 104 105 100 101 88
83 212 228 301 291 236 281 310 339 40 278 342 345 339 352 349 12 9 336 346 7 26 25 39 50 70 80 90 94 91 108 115 108 118 116 117 106 106 104 106 105 96 87 90
309 291 195 273 269 293 264 301 320 35 290 316 331 329 354 357 326 317 330 350 8 13 20 37 35 60 78 108 106 87 83 92 111 111 104 102 104 103 107 108 102 105 109 101
229 301 255 162 255 315 249 335 42 236 297 285 315 327 339 342 354 2 353 357 9 13 25 32 52 43 41 93 113 105 95 97 105 106 104 107 109 114 111 112 111 111 111 107
272 194 225 180 222 226 261 218 227 228 257 291 308 327 349 348 14 23 357 2 21 25 32 41 52 51 38 64 112 104 107 111 114 102 109 112 115 114 113 117 116 106 104 102
281 203 233 348 277 253 276 268 195 213 241 283 277 332 358 336 356 48 10 2 32 39 31 52 58 54 60 66 95 100 110 111 108 110 114 118 114 111 109 100 105 115 118 111
209 335 226 259 278 300 282 235 181 209 263 284 299 342 331 358 334 48 52 14 28 56 47 45 72 66 59 78 85 101 113 116 111 113 113 112 109 113 103 82 98 106 74 103
189 216 179 226 227 210 252 250 218 165 235 262 270 309 21 68 67 78 77 59 49 60 65 66 74 83 68 91 97 99 107 121 121 115 117 120 119 116 107 99 86 59 83 92